Location: Engelmannsreuth
(49.8125°N, 11.6497°E)
Time: 19:48:01
(UTC+00:00)

STARLINK-1190 - Pass Details

Date: 17 February 2020
Orbit: 553 x 556 km, 53.0° (Epoch: 05 April)

Event Time Altitude Azimuth Distance (km) Brightness Sun altitude
Exits shadow 03:35:04 43° 51° (NE) 794 4.7 -27.3°
Drops below altitude 10° 03:38:01 10° 69° (ENE) 1,840 7.3 -26.8°
Enters shadow 04:35:13 -69° 266° (W) 12,466 10.4 -17.7°
Maximum altitude 05:13:54 57° 7° (N) 661 4.0 -11.4°
